This demonstration page uses our WeatherBlox Daily Observations layout. Learn more.

Left ArrowRight Arrow

40.92945, -100.16068

Hourly Observations for February 23, 2020

Temp ( °F °C ) Dew Point ( °F °C ) Humidity (%) Winds ( mph kmh ) Pressure ( in mb ) Visibility ( mi km ) Precip ( " mm )
12:15 am 00:15 Clear 26 -3.3 22 -5.7 84 84 N N/A 30.08 1019 10 16 N/A
12:35 am 00:35 Clear 28 -2.2 23 -5 81 81 N N/A 30.06 1018 10 16 N/A
12:55 am 00:55 Clear 28 -2.1 24 -4.4 84 84 W 3 6 30.06 1018 10 16 N/A
1:15 am 01:15 Clear 28 -2 23 -4.9 81 81 W 7 11 30.07 1018 10 16 N/A
1:35 am 01:35 Clear 29 -1.6 24 -4.5 81 81 W 6 9 30.05 1018 10 16 N/A
1:55 am 01:55 Clear 29 -1.6 24 -4.6 80 80 WNW 5 7 30.06 1018 10 16 N/A
2:15 am 02:15 Clear 30 -1.2 25 -3.8 83 83 WNW 3 6 30.06 1018 10 16 N/A
2:35 am 02:35 Clear 30 -1.3 25 -4.1 81 81 NNW 6 9 30.06 1018 10 16 N/A
2:55 am 02:55 Clear 31 -0.7 25 -4.1 78 78 WNW 6 9 30.04 1017 10 16 N/A
3:15 am 03:15 Clear 32 -0.2 26 -3.6 78 78 WNW 6 9 30.04 1017 10 16 N/A
3:35 am 03:35 Clear 31 -0.5 26 -3.6 80 80 W 9 15 30.05 1018 10 16 N/A
3:55 am 03:55 Clear 32 undefined 25 -3.7 76 76 W 6 9 30.05 1017 10 16 N/A
4:15 am 04:15 Clear 31 -0.5 26 -3.6 80 80 W 7 11 30.04 1017 10 16 N/A
4:35 am 04:35 Clear 31 -0.5 26 -3.5 80 80 WNW 6 9 30.05 1018 10 16 N/A
4:55 am 04:55 Clear 31 -0.3 25 -3.8 78 78 NW 6 9 30.05 1018 10 16 N/A
5:15 am 05:15 Clear 31 -0.7 25 -3.7 80 80 W 6 9 30.05 1018 10 16 N/A
5:35 am 05:35 Clear 31 -0.7 26 -3.5 82 82 W 6 9 30.05 1018 10 16 N/A
5:55 am 05:55 Clear 30 -1 25 -4 80 80 W 6 9 30.06 1018 10 16 N/A
6:15 am 06:15 Clear 30 -1 25 -4.1 80 80 WNW 9 15 30.06 1018 10 16 N/A
6:35 am 06:35 Clear 30 -1 24 -4.5 77 77 NW 6 9 30.06 1018 10 16 N/A
6:55 am 06:55 Clear 31 -0.8 24 -4.6 76 76 WNW 6 9 30.05 1018 10 16 N/A
7:15 am 07:15 Clear 29 -1.7 24 -4.4 82 82 NW 6 9 30.06 1018 10 16 N/A
7:35 am 07:35 Sunny 30 -1.3 24 -4.4 80 80 NW 7 11 30.07 1018 10 16 N/A
7:55 am 07:55 Sunny 31 -0.7 25 -3.8 80 80 NW 7 11 30.07 1018 10 16 N/A
8:15 am 08:15 Sunny 31 -0.5 26 -3.6 80 80 N N/A 30.08 1019 10 16 N/A
8:35 am 08:35 Sunny 32 undefined 26 -3.3 79 79 N 6 9 30.08 1019 10 16 N/A
8:55 am 08:55 Sunny 33 0.5 27 -3 78 78 W 6 9 30.08 1019 10 16 N/A
9:15 am 09:15 Sunny 35 1.6 28 -2.5 74 74 NW 6 9 30.07 1018 10 16 N/A
9:35 am 09:35 Sunny 38 3.5 28 -2.4 66 66 WNW 5 7 30.05 1018 10 16 N/A
9:55 am 09:55 Sunny 39 4 28 -2.2 64 64 NW 5 7 30.05 1018 10 16 N/A
10:15 am 10:15 Sunny 40 4.6 28 -2.3 61 61 N N/A 30.04 1017 10 16 N/A
10:35 am 10:35 Sunny 41 5 29 -1.7 62 62 WNW 3 6 30.05 1018 10 16 N/A
10:55 am 10:55 Partly Cloudy 42 5.6 29 -1.6 60 60 N N/A 30.04 1017 10 16 N/A
11:15 am 11:15 Partly Cloudy 43 5.9 29 -1.4 60 60 N 5 7 30.03 1017 10 16 N/A
11:35 am 11:35 Partly Cloudy 45 7.2 29 -1.9 53 53 N 3 6 30.01 1016 10 16 N/A
11:55 am 11:55 Cloudy 47 8.1 28 -2.2 49 49 N 7 11 30.00 1016 10 16 N/A
12:15 pm 12:15 Cloudy 48 9 28 -2.5 45 45 NE 7 11 29.98 1015 10 16 N/A
12:35 pm 12:35 Cloudy 49 9.5 27 -2.6 43 43 NNE 10 17 29.98 1015 10 16 N/A
12:55 pm 12:55 Cloudy 50 9.9 27 -3 41 41 NNE 14 22 29.96 1015 10 16 N/A
1:15 pm 13:15 Cloudy 50 10.2 26 -3.1 39 39 NNE 14 22 29.94 1014 10 16 N/A
1:35 pm 13:35 Cloudy 51 10.3 26 -3.4 38 38 NNE 16 26 29.92 1013 10 16 N/A
1:55 pm 13:55 Cloudy 51 10.7 24 -4.3 35 35 NE 15 24 29.91 1013 10 16 N/A
2:15 pm 14:15 Cloudy 52 11 24 -4.5 34 34 NNE 12 19 29.91 1013 10 16 N/A
2:35 pm 14:35 Cloudy 53 11.5 25 -3.8 34 34 ENE 12 19 29.92 1013 10 16 N/A
2:55 pm 14:55 Cloudy 53 11.7 26 -3.1 36 36 E 13 20 29.91 1013 10 16 N/A
3:15 pm 15:15 Cloudy 54 12.3 28 -2.4 36 36 E 15 24 29.90 1013 10 16 N/A
3:35 pm 15:35 Mostly Cloudy 56 13.3 28 -2.5 34 34 ENE 18 30 29.89 1012 10 16 N/A
3:55 pm 15:55 Mostly Cloudy 56 13.3 27 -2.6 33 33 E 13 20 29.89 1012 10 16 N/A
4:15 pm 16:15 Cloudy 53 11.7 27 -2.9 36 36 E 14 22 29.91 1013 10 16 N/A
4:35 pm 16:35 Cloudy 52 11 29 -1.5 42 42 E 12 19 29.91 1013 10 16 N/A
4:55 pm 16:55 Cloudy 52 10.9 28 -2.2 40 40 ENE 13 20 29.90 1013 10 16 N/A
5:15 pm 17:15 Mostly Cloudy 51 10.5 27 -2.8 40 40 ENE 12 19 29.92 1013 10 16 N/A
5:35 pm 17:35 Partly Cloudy 50 9.8 27 -2.7 42 42 NE 10 17 29.92 1013 10 16 N/A
5:55 pm 17:55 Sunny 49 9.3 29 -1.6 47 47 NE 14 22 29.93 1013 10 16 N/A
6:15 pm 18:15 Sunny 47 8.5 29 -1.5 50 50 NE 12 19 29.96 1014 10 16 N/A
6:35 pm 18:35 Clear 46 7.7 29 -1.5 53 53 NE 9 15 29.96 1015 10 16 N/A
6:55 pm 18:55 Clear 45 7 29 -1.5 55 55 NE 12 19 29.98 1015 10 16 N/A
7:15 pm 19:15 Clear 43 6.1 30 -1.3 59 59 NNE 8 13 30.00 1016 10 16 N/A
7:35 pm 19:35 Clear 42 5.8 30 -1.1 62 62 NE 12 19 30.00 1016 10 16 N/A
7:55 pm 19:55 Clear 41 5.2 30 -1.3 63 63 NE 12 19 30.01 1016 10 16 N/A
8:15 pm 20:15 Clear 41 5 29 -1.6 63 63 NE 12 19 30.01 1016 10 16 N/A
8:35 pm 20:35 Clear 40 4.4 28 -2.2 63 63 NE 13 20 30.01 1016 10 16 N/A
8:55 pm 20:55 Clear 39 4 28 -2.3 64 64 NNE 12 19 30.02 1017 10 16 N/A
9:15 pm 21:15 Clear 38 3.5 28 -2.1 67 67 NE 10 17 30.02 1017 10 16 N/A
9:35 pm 21:35 Clear 38 3.3 28 -2 69 69 NE 10 17 30.01 1016 10 16 N/A
9:55 pm 21:55 Clear 37 3 28 -2 70 70 NE 10 17 30.02 1017 10 16 N/A
10:15 pm 22:15 Clear 37 2.7 28 -2.2 70 70 NE 8 13 30.02 1017 10 16 N/A
10:35 pm 22:35 Clear 37 2.5 27 -2.6 69 69 NE 9 15 30.01 1016 10 16 N/A
10:55 pm 22:55 Clear 37 2.5 27 -3 67 67 NNE 9 15 30.00 1016 10 16 N/A
11:15 pm 23:15 Clear 36 2.1 27 -3 69 69 NNE 7 11 30.00 1016 10 16 N/A
11:35 pm 23:35 Clear 35 1.9 26 -3.1 70 70 N N/A 30.00 1016 10 16 N/A
11:55 pm 23:55 Clear 35 1.5 26 -3.3 71 71 NNE 7 11 30.00 1016 10 16 N/A

Powered by AerisWeather